�N����,����,�g�[���i�L�b�`���j���x,�g�[�����x,��g�[���i���ʏ��j���x,����
 2003/08/01, 0:00,25.6,64,24.1,24.7
 2003/08/01, 0:15,25.7,64,24.2,24.7
 2003/08/01, 0:30,25.7,64,24.3,24.7
 2003/08/01, 0:45,25.6,64,24.4,24.7
 2003/08/01, 1:00,25.6,64,24.3,24.8
 2003/08/01, 1:15,25.5,65,24.3,24.8
 2003/08/01, 1:30,25.5,65,24.3,24.8
 2003/08/01, 1:45,25.5,65,24.4,24.8
 2003/08/01, 2:00,25.4,67,24.4,24.8
 2003/08/01, 2:15,25.5,66,24.4,24.9
 2003/08/01, 2:30,25.5,66,24.4,24.9
 2003/08/01, 2:45,25.4,66,24.3,24.9
 2003/08/01, 3:00,25.4,67,24.2,24.9
 2003/08/01, 3:15,25.3,67,24.2,24.9
 2003/08/01, 3:30,25.3,67,24.1,25
 2003/08/01, 3:45,25.3,67,24,25
 2003/08/01, 4:00,25.3,67,24.1,25
 2003/08/01, 4:15,25.3,67,24.1,25
 2003/08/01, 4:30,25.3,67,24,25
 2003/08/01, 4:45,25.2,67,24,25
 2003/08/01, 5:00,25.2,67,23.9,24.2
 2003/08/01, 5:15,25.2,67,24.1,24.2
 2003/08/01, 5:30,25.1,67,23.9,24.2
 2003/08/01, 5:45,25.2,66,23.9,24.2
 2003/08/01, 6:00,25.3,67,23.9,24.2
 2003/08/01, 6:15,25.3,68,24,24.2
 2003/08/01, 6:30,25.5,68,23.9,24.2
 2003/08/01, 6:45,25.5,67,23.8,23.9
 2003/08/01, 7:00,25.5,68,23.9,23.9
 2003/08/01, 7:15,25.6,68,24,23.4
 2003/08/01, 7:30,25.7,67,24.1,23.5
 2003/08/01, 7:45,25.7,67,24.3,23.5
 2003/08/01, 8:00,25.7,67,24.4,23.6
 2003/08/01, 8:15,25.7,68,24.5,23.7
 2003/08/01, 8:30,25.8,68,24.8,23.8
 2003/08/01, 8:45,26,68,25.1,23.9
 2003/08/01, 9:00,26.5,68,25.2,23.9
 2003/08/01, 9:15,26.8,68,25.4,24
 2003/08/01, 9:30,27,66,25.6,24.1
 2003/08/01, 9:45,27.3,65,25.9,23.9
 2003/08/01,10:00,27.4,65,26.1,23.9
 2003/08/01,10:15,27.4,64,26.3,23.9
 2003/08/01,10:30,27.6,63,26.5,24
 2003/08/01,10:45,27.5,64,26.7,24
 2003/08/01,11:00,27.6,62,27.1,24.1
 2003/08/01,11:15,27.6,64,27.4,24.2
 2003/08/01,11:30,27.8,62,27.7,24.2
 2003/08/01,11:45,27.9,62,28,24.3
 2003/08/01,12:00,28,63,28.4,24.4
 2003/08/01,12:15,28,62,28.3,24.5
 2003/08/01,12:30,28.1,61,28.7,24.6
 2003/08/01,12:45,28.3,60,28.8,24.6
 2003/08/01,13:00,28.4,59,29,24.7
 2003/08/01,13:15,28.5,60,29.6,24.7
 2003/08/01,13:30,28.6,59,29.5,24.8
 2003/08/01,13:45,28.7,61,29.6,24.9
 2003/08/01,14:00,28.7,58,29.7,24.9
 2003/08/01,14:15,28.7,59,29.4,25
 2003/08/01,14:30,28.9,58,29.8,25
 2003/08/01,14:45,29,58,29.9,25.1
 2003/08/01,15:00,29.4,55,30,25.5
 2003/08/01,15:15,29.3,57,30.2,25.5
 2003/08/01,15:30,29.7,56,30.1,25.6
 2003/08/01,15:45,29.8,56,30.1,25.6
 2003/08/01,16:00,29.8,56,30.1,25.7
 2003/08/01,16:15,29.7,56,30.1,25.8
 2003/08/01,16:30,29.7,55,30,25.9
 2003/08/01,16:45,29.6,55,30,26
 2003/08/01,17:00,29.5,57,29.8,26
 2003/08/01,17:15,29.5,58,29.7,26.1
 2003/08/01,17:30,29.5,58,29.5,26.2
 2003/08/01,17:45,29.3,59,29.1,26.3
 2003/08/01,18:00,29.3,59,29,26.4
 2003/08/01,18:15,29.2,61,28.7,26.4
 2003/08/01,18:30,29.3,61,28.6,26.5
 2003/08/01,18:45,29.3,61,28.7,26.6
 2003/08/01,19:00,29.2,62,28.7,26.6
 2003/08/01,19:15,29.2,62,28.7,26.7
 2003/08/01,19:30,29.2,62,28.6,26.7
 2003/08/01,19:45,29.1,62,28.3,26.8
 2003/08/01,20:00,29,63,27.7,26.8
 2003/08/01,20:15,28.9,63,27.6,26.9
 2003/08/01,20:30,28.9,62,27.5,26.9
 2003/08/01,20:45,28.8,62,27.4,27
 2003/08/01,21:00,28.7,62,27.3,27
 2003/08/01,21:15,28.6,63,27.5,27.1
 2003/08/01,21:30,28.6,63,27.6,27.1
 2003/08/01,21:45,28.6,63,27.8,27.1
 2003/08/01,22:00,28.5,63,27.6,27.2
 2003/08/01,22:15,28.4,64,27.2,27.2
 2003/08/01,22:30,28.4,64,27.1,27.2
 2003/08/01,22:45,28.3,64,27.1,27.3
 2003/08/01,23:00,28.3,64,27.1,27.3
 2003/08/01,23:15,28.3,64,27,27.3
 2003/08/01,23:30,28.2,64,27,27.3
 2003/08/01,23:45,28.2,65,27.1,26.4
 2003/08/02, 0:00,28.1,65,26.9,26.4
 2003/08/02, 0:15,28,65,26.9,26.4
 2003/08/02, 0:30,27.9,65,26.8,26.5
 2003/08/02, 0:45,27.8,66,26.7,26.5
 2003/08/02, 1:00,27.7,66,26.5,26.5
 2003/08/02, 1:15,27.7,67,26.3,26.5
 2003/08/02, 1:30,27.6,68,26.2,26.6
 2003/08/02, 1:45,27.6,69,26.1,26.6
 2003/08/02, 2:00,27.5,69,26,26.6
 2003/08/02, 2:15,27.4,70,26.1,26.6
 2003/08/02, 2:30,27.4,70,26.2,26.7
 2003/08/02, 2:45,27.4,70,26.3,26.7
 2003/08/02, 3:00,27.4,71,26.3,26.7
 2003/08/02, 3:15,27.3,72,26.3,26.7
 2003/08/02, 3:30,27.3,72,26.3,26.7
 2003/08/02, 3:45,27.3,71,26.3,26.8
 2003/08/02, 4:00,27.3,71,26.3,26.8
 2003/08/02, 4:15,27.3,72,26.3,26.8
 2003/08/02, 4:30,27.2,72,26.3,26.8
 2003/08/02, 4:45,27.2,72,26.3,26.8
 2003/08/02, 5:00,27.2,72,26.2,26.9
 2003/08/02, 5:15,27.2,72,26.1,26.9
 2003/08/02, 5:30,27.1,73,26.1,26.9
 2003/08/02, 5:45,27.1,72,25.9,26.9
 2003/08/02, 6:00,27.1,73,26,26.9
 2003/08/02, 6:15,26.9,74,26,26.9
 2003/08/02, 6:30,26.9,74,26.1,25.8
 2003/08/02, 6:45,27,74,26.1,25.8
 2003/08/02, 7:00,26.9,73,26.1,25.8
 2003/08/02, 7:15,27,73,26.2,25.8
 2003/08/02, 7:30,27,73,26.3,25.9
 2003/08/02, 7:45,27.2,73,26.5,25.9
 2003/08/02, 8:00,27.2,73,26.6,25.9
 2003/08/02, 8:15,27.5,73,26.7,26
 2003/08/02, 8:30,27.6,72,26.8,26
 2003/08/02, 8:45,27.6,72,26.9,26
 2003/08/02, 9:00,27.6,72,27,25.4
 2003/08/02, 9:15,27.7,71,27.1,24.8
 2003/08/02, 9:30,27.9,70,27.2,24.8
 2003/08/02, 9:45,28,67,27.4,24.8
 2003/08/02,10:00,28.1,66,27.6,24.9
 2003/08/02,10:15,28.2,65,27.7,24.9
 2003/08/02,10:30,28.3,63,27.9,25
 2003/08/02,10:45,28.4,63,28,25
 2003/08/02,11:00,28.5,62,28.3,25.1
 2003/08/02,11:15,28.7,60,28.5,25.1
 2003/08/02,11:30,28.8,58,28.9,25.2
 2003/08/02,11:45,28.9,58,29.1,25.2
 2003/08/02,12:00,29,58,29.5,25.3
 2003/08/02,12:15,28.9,56,29.5,25.4
 2003/08/02,12:30,29.1,57,29.6,25.4
 2003/08/02,12:45,29.1,56,29.8,25.5
 2003/08/02,13:00,29.2,55,29.9,25.6
 2003/08/02,13:15,29.3,55,30.3,25.6
 2003/08/02,13:30,29.4,53,30.3,25.7
 2003/08/02,13:45,29.5,54,30.5,25.8
 2003/08/02,14:00,29.5,53,30.5,25.8
 2003/08/02,14:15,29.6,54,30.5,25.9
 2003/08/02,14:30,29.7,52,30.5,26
 2003/08/02,14:45,29.7,51,30.3,26
 2003/08/02,15:00,29.9,53,30.5,26.4
 2003/08/02,15:15,30,52,30.4,26.5
 2003/08/02,15:30,30,52,30.4,26.6
 2003/08/02,15:45,30,53,30.3,26.7
 2003/08/02,16:00,30,56,30.2,26.8
 2003/08/02,16:15,30,56,30.1,26.9
 2003/08/02,16:30,29.8,57,30,27.1
 2003/08/02,16:45,29.8,57,29.7,27.2
 2003/08/02,17:00,29.7,58,29.6,27.3
 2003/08/02,17:15,29.6,59,29.6,26.4
 2003/08/02,17:30,29.6,60,29.5,26.5
 2003/08/02,17:45,29.4,61,29.3,26.5
 2003/08/02,18:00,29.5,61,29.3,26.7
 2003/08/02,18:15,29.5,62,29.2,26.9
 2003/08/02,18:30,29.4,62,29,27
 2003/08/02,18:45,29.4,62,28.8,27.2
 2003/08/02,19:00,29.3,63,28.7,27.4
 2003/08/02,19:15,29.3,63,28.5,27.5
 2003/08/02,19:30,29.2,63,28.4,27.7
 2003/08/02,19:45,29.1,64,28.3,27.8
 2003/08/02,20:00,29,65,28.2,27.9
 2003/08/02,20:15,29,65,28.2,28
 2003/08/02,20:30,29,65,28.1,28
 2003/08/02,20:45,29,65,28.1,28.1
 2003/08/02,21:00,29,65,28.3,28.1
 2003/08/02,21:15,29,64,28.3,28.2
 2003/08/02,21:30,28.9,64,28.3,28.2
 2003/08/02,21:45,28.9,64,28.2,28.3
 2003/08/02,22:00,28.9,64,28.3,28.3
 2003/08/02,22:15,29,64,28.6,28.3
 2003/08/02,22:30,29,64,28.4,28.3
 2003/08/02,22:45,29,64,28.5,28.3
 2003/08/02,23:00,29,64,28.2,28.4
 2003/08/02,23:15,29,64,28,28.4
 2003/08/02,23:30,29,64,28,27
 2003/08/02,23:45,29,64,27.9,26.9
 2003/08/03, 0:00,29,64,27.7,27
 2003/08/03, 0:15,28.9,64,27.6,27
 2003/08/03, 0:30,28.9,64,27.6,27
 2003/08/03, 0:45,28.7,64,27.5,27.1
 2003/08/03, 1:00,28.7,64,27.5,27.1
 2003/08/03, 1:15,28.6,65,27.4,27.2
 2003/08/03, 1:30,28.5,66,27.3,27.2
 2003/08/03, 1:45,28.4,66,27.3,27.3
 2003/08/03, 2:00,28.4,66,27.3,27.3
 2003/08/03, 2:15,28.4,66,27.3,27.4
 2003/08/03, 2:30,28.3,66,27.3,27.4
 2003/08/03, 2:45,28.3,67,27.3,27.4
 2003/08/03, 3:00,28.3,68,27.3,27.5
 2003/08/03, 3:15,28.3,68,27.2,27.5
 2003/08/03, 3:30,28.2,69,27.2,27.5
 2003/08/03, 3:45,28.2,70,26.9,27.5
 2003/08/03, 4:00,28.1,70,27,27.6
 2003/08/03, 4:15,28.1,70,27,27.6
 2003/08/03, 4:30,28,70,27.1,27.6
 2003/08/03, 4:45,28,70,27,27.7
 2003/08/03, 5:00,28,70,26.8,27.7
 2003/08/03, 5:15,27.9,70,26.9,27.7
 2003/08/03, 5:30,27.9,71,26.8,27.7
 2003/08/03, 5:45,27.9,71,26.8,27.7
 2003/08/03, 6:00,27.8,71,26.8,26.7
 2003/08/03, 6:15,27.8,73,26.6,26.5
 2003/08/03, 6:30,27.7,73,26.5,26.5
 2003/08/03, 6:45,27.7,73,26.6,26.5
 2003/08/03, 7:00,27.7,73,26.7,26.5
 2003/08/03, 7:15,27.7,73,26.8,26.5
 2003/08/03, 7:30,27.8,70,27,26
 2003/08/03, 7:45,28,72,27.2,26.1
 2003/08/03, 8:00,28.1,72,27.2,26.1
 2003/08/03, 8:15,28.2,72,27.4,26.1
 2003/08/03, 8:30,28.3,71,27.6,26.2
 2003/08/03, 8:45,28.4,72,27.6,26
 2003/08/03, 9:00,28.3,71,27.6,26
 2003/08/03, 9:15,28.5,71,27.8,26.1
 2003/08/03, 9:30,28.6,70,28.1,26.1
 2003/08/03, 9:45,28.8,69,28.2,26.1
 2003/08/03,10:00,29,69,28.4,26.2
 2003/08/03,10:15,29.1,67,28.5,26.2
 2003/08/03,10:30,29.3,68,28.7,26.3
 2003/08/03,10:45,29.5,67,28.8,26.3
 2003/08/03,11:00,29.5,64,29,26.5
 2003/08/03,11:15,29.5,64,29.2,26.5
 2003/08/03,11:30,29.6,65,29.4,26.5
 2003/08/03,11:45,29.8,66,29.7,26.5
 2003/08/03,12:00,29.8,65,30,26.6
 2003/08/03,12:15,29.9,65,30.3,26.6
 2003/08/03,12:30,30,65,30.3,26.7
 2003/08/03,12:45,30.1,65,30.5,26.7
 2003/08/03,13:00,30.2,65,30.6,26.8
 2003/08/03,13:15,30.3,66,30.6,26.8
 2003/08/03,13:30,30.4,65,30.8,26.9
 2003/08/03,13:45,30.5,62,30.8,26.9
 2003/08/03,14:00,30.5,59,31,27.1
 2003/08/03,14:15,30.5,60,30.9,27.2
 2003/08/03,14:30,30.5,60,30.8,27.2
 2003/08/03,14:45,30.5,59,30.6,27.3
 2003/08/03,15:00,30.4,60,30.2,27.3
 2003/08/03,15:15,30.3,60,30.2,27.3
 2003/08/03,15:30,30.3,59,30.2,27.4
 2003/08/03,15:45,30.4,58,30.1,27.5
 2003/08/03,16:00,30.5,60,30,27.5
 2003/08/03,16:15,30.3,60,29.9,27.5
 2003/08/03,16:30,30.3,59,29.7,27.6
 2003/08/03,16:45,30.1,58,29.6,27.6
 2003/08/03,17:00,30,59,29.7,27.7
 2003/08/03,17:15,30.1,60,29.6,27.7
 2003/08/03,17:30,30,61,29.7,27.8
 2003/08/03,17:45,30,62,29.7,27.8
 2003/08/03,18:00,29.9,62,29.6,27.8
 2003/08/03,18:15,30,62,29.5,27.9
 2003/08/03,18:30,29.9,63,29.3,27.9
 2003/08/03,18:45,29.9,63,29.3,28
 2003/08/03,19:00,29.9,64,29.3,28
 2003/08/03,19:15,29.8,64,29.2,28
 2003/08/03,19:30,29.8,64,29.1,28
 2003/08/03,19:45,29.8,64,29,28
 2003/08/03,20:00,29.8,64,29,28.1
 2003/08/03,20:15,29.7,64,29,28.1
 2003/08/03,20:30,29.7,65,28.9,28.1
 2003/08/03,20:45,29.6,65,29,28.1
 2003/08/03,21:00,29.6,65,29,28.2
 2003/08/03,21:15,29.5,64,29.3,28.2
 2003/08/03,21:30,29.5,64,28.9,28.2
 2003/08/03,21:45,29.5,65,28.9,28.2
 2003/08/03,22:00,29.4,65,28.8,28.3
 2003/08/03,22:15,29.4,66,28.7,28.3
 2003/08/03,22:30,29.4,66,28.7,28.3
 2003/08/03,22:45,29.4,67,28.6,28.3
 2003/08/03,23:00,29.4,67,28.6,28.3
 2003/08/03,23:15,29.4,67,28.4,28.3
 2003/08/03,23:30,29.5,67,28.4,28.4
 2003/08/03,23:45,29.5,67,28.3,28.4
 2003/08/04, 0:00,29.5,67,28.3,28.4
 2003/08/04, 0:15,29.5,67,28.3,28.4
 2003/08/04, 0:30,29.6,67,28.3,27.6
 2003/08/04, 0:45,29.6,68,28.2,27.6
 2003/08/04, 1:00,29.6,68,28.2,27.6
 2003/08/04, 1:15,29.5,69,28.2,27.6
 2003/08/04, 1:30,29.4,69,28.1,27.6
 2003/08/04, 1:45,29.4,69,28,27.6
 2003/08/04, 2:00,29.3,69,28,27.7
 2003/08/04, 2:15,29.2,69,28,27.7
 2003/08/04, 2:30,29.1,71,28,27.7
 2003/08/04, 2:45,29.1,72,27.9,27.7
 2003/08/04, 3:00,29.1,72,27.9,27.7
 2003/08/04, 3:15,29.1,71,27.8,27.8
 2003/08/04, 3:30,29,72,27.8,27.8
 2003/08/04, 3:45,29,71,27.8,27.8
 2003/08/04, 4:00,29,72,27.7,27.8
 2003/08/04, 4:15,28.9,72,27.7,27.8
 2003/08/04, 4:30,28.9,72,27.7,27.8
 2003/08/04, 4:45,28.9,72,27.7,27.9
 2003/08/04, 5:00,28.9,72,27.6,27.9
 2003/08/04, 5:15,28.9,71,27.6,26.8
 2003/08/04, 5:30,29,71,27.7,26.8
 2003/08/04, 5:45,29,71,27.7,26.8
 2003/08/04, 6:00,29,72,27.7,26.8
 2003/08/04, 6:15,29.1,72,27.7,26.9
 2003/08/04, 6:30,29,72,27.7,26.9
 2003/08/04, 6:45,28.9,72,27.6,26.9
 2003/08/04, 7:00,28.8,73,27.6,26.9
 2003/08/04, 7:15,28.8,72,27.6,26.9
 2003/08/04, 7:30,28.8,74,27.7,27
 2003/08/04, 7:45,28.8,74,27.8,26.8
 2003/08/04, 8:00,28.9,73,27.9,26.8
 2003/08/04, 8:15,28.9,74,27.8,26.8
 2003/08/04, 8:30,28.8,74,27.9,26.8
 2003/08/04, 8:45,28.9,74,28,26.9
 2003/08/04, 9:00,29,74,28,26.9
 2003/08/04, 9:15,29,74,28.1,26.9
 2003/08/04, 9:30,29,74,28.1,26.9
 2003/08/04, 9:45,29,74,28.3,27
 2003/08/04,10:00,29.2,73,28.6,27
 2003/08/04,10:15,29.5,71,28.8,26.9
 2003/08/04,10:30,29.5,71,29.1,26.4
 2003/08/04,10:45,29.5,70,29.1,26.4
 2003/08/04,11:00,29.6,68,29.1,26.5
 2003/08/04,11:15,29.7,66,29.2,26.5
 2003/08/04,11:30,29.7,66,29.3,26.5
 2003/08/04,11:45,29.8,66,29.3,26.6
 2003/08/04,12:00,30,65,29.6,26.6
 2003/08/04,12:15,30,64,29.7,26.9
 2003/08/04,12:30,30.2,63,30,27
 2003/08/04,12:45,30.3,63,30,27
 2003/08/04,13:00,30.4,63,30.1,27.1
 2003/08/04,13:15,30.6,63,30.2,27.2
 2003/08/04,13:30,30.7,62,30.7,27.3
 2003/08/04,13:45,30.8,63,30.7,27.4
 2003/08/04,14:00,31,61,30.7,27.5
 2003/08/04,14:15,31.2,62,30.7,27.6
 2003/08/04,14:30,31.2,62,30.7,27.7
 2003/08/04,14:45,31.1,60,30.7,27.7
 2003/08/04,15:00,31,60,30.6,27.9
 2003/08/04,15:15,31,61,30.7,28
 2003/08/04,15:30,30.8,62,30.6,28.1
 2003/08/04,15:45,30.9,63,30.6,28.2
 2003/08/04,16:00,30.9,63,30.6,27.8
 2003/08/04,16:15,30.8,64,30.4,27.9
 2003/08/04,16:30,30.7,64,30.4,27.9
 2003/08/04,16:45,30.6,65,30.2,27.9
 2003/08/04,17:00,30.5,67,30.2,28
 2003/08/04,17:15,30.4,68,30.1,28
 2003/08/04,17:30,30.5,67,29.9,28.1
 2003/08/04,17:45,30.4,66,29.8,28.1
 2003/08/04,18:00,30.2,67,29.6,28.1
 2003/08/04,18:15,30,68,29.7,28.1
 2003/08/04,18:30,30,67,29.6,28.2
 2003/08/04,18:45,30.1,68,29.8,28.2
 2003/08/04,19:00,30.2,68,29.9,28.2
 2003/08/04,19:15,30,67,29.7,28.3
 2003/08/04,19:30,30,67,29.6,28.3
 2003/08/04,19:45,29.9,67,29.5,28.3
 2003/08/04,20:00,29.7,68,29.4,28.4
 2003/08/04,20:15,29.7,68,29.3,28.4
 2003/08/04,20:30,29.5,68,29.2,28.4
 2003/08/04,20:45,29.5,68,29,28.5
 2003/08/04,21:00,29.4,67,29,28.5
 2003/08/04,21:15,29.4,67,28.9,28.5
 2003/08/04,21:30,29.3,68,29,28.5
 2003/08/04,21:45,29.2,70,29,28.1
 2003/08/04,22:00,29.3,70,29.1,28.1
 2003/08/04,22:15,29.3,70,29.3,28.1
 2003/08/04,22:30,29.3,71,29.4,28.1
 2003/08/04,22:45,29.3,71,28.9,28.1
 2003/08/04,23:00,29.3,70,29,28.1
 2003/08/04,23:15,29.3,70,28.7,28.1
 2003/08/04,23:30,29.3,70,28.6,28.2
 2003/08/04,23:45,29.3,70,28.5,28.2
 2003/08/05, 0:00,29.3,69,28.4,27.6
 2003/08/05, 0:15,29.2,70,28.4,27.6
 2003/08/05, 0:30,29.2,70,28.3,27.6
 2003/08/05, 0:45,29.2,71,28.2,27.6
 2003/08/05, 1:00,29.2,72,28.2,27.7
 2003/08/05, 1:15,29.1,72,28,27.7
 2003/08/05, 1:30,29.1,72,28,27.7
 2003/08/05, 1:45,29.1,73,28,27.7
 2003/08/05, 2:00,28.9,74,28,27.7
 2003/08/05, 2:15,29,73,28,27.8
 2003/08/05, 2:30,29,73,28,27.8
 2003/08/05, 2:45,28.9,73,27.9,27.8
 2003/08/05, 3:00,28.9,73,27.8,27.8
 2003/08/05, 3:15,28.8,74,27.8,27.8
 2003/08/05, 3:30,28.8,74,27.8,27.9
 2003/08/05, 3:45,28.8,74,27.7,27.9
 2003/08/05, 4:00,28.7,74,27.6,27.9
 2003/08/05, 4:15,28.7,74,27.6,27.9
 2003/08/05, 4:30,28.7,73,27.5,27.9
 2003/08/05, 4:45,28.6,74,27.4,27.9
 2003/08/05, 5:00,28.5,74,27.4,28
 2003/08/05, 5:15,28.5,74,27.4,28
 2003/08/05, 5:30,28.5,74,27.3,28
 2003/08/05, 5:45,28.5,74,27.3,28
 2003/08/05, 6:00,28.5,74,27.4,28
 2003/08/05, 6:15,28.5,75,27.5,27.2
 2003/08/05, 6:30,28.5,73,27.8,27.2
 2003/08/05, 6:45,28.6,73,27.6,27.3
 2003/08/05, 7:00,28.6,75,27.6,27.3
 2003/08/05, 7:15,28.6,74,27.6,27.3
 2003/08/05, 7:30,28.6,76,27.6,27.3
 2003/08/05, 7:45,28.7,74,27.8,27.3
 2003/08/05, 8:00,28.8,74,27.8,27.3
 2003/08/05, 8:15,28.8,74,27.9,27.4
 2003/08/05, 8:30,28.9,74,28,27.4
 2003/08/05, 8:45,29,74,28.2,27.4
 2003/08/05, 9:00,29.1,74,28.3,27.4
 2003/08/05, 9:15,29.2,73,28.5,27.5
 2003/08/05, 9:30,29.3,72,28.5,27.5
 2003/08/05, 9:45,29.4,72,28.7,27.5
 2003/08/05,10:00,29.5,72,28.9,27.5
 2003/08/05,10:15,29.6,71,29,27.6
 2003/08/05,10:30,29.7,70,29.1,27.6
 2003/08/05,10:45,29.7,70,29.2,27.6
 2003/08/05,11:00,29.8,68,29.4,27.6
 2003/08/05,11:15,30,67,29.7,27.7
 2003/08/05,11:30,30,67,29.9,27.7
 2003/08/05,11:45,30,66,30,27.5
 2003/08/05,12:00,30.1,65,30.3,27.5
 2003/08/05,12:15,30.2,65,30.4,27.5
 2003/08/05,12:30,30.4,66,30.7,27.6
 2003/08/05,12:45,30.5,65,30.8,27.6
 2003/08/05,13:00,30.7,65,31.2,27.7
 2003/08/05,13:15,30.6,64,31.3,27.7
 2003/08/05,13:30,30.8,64,31.5,27.8
 2003/08/05,13:45,30.8,64,31.5,27.8
 2003/08/05,14:00,30.9,63,31.5,27.8
 2003/08/05,14:15,31,63,31.6,27.9
 2003/08/05,14:30,31,62,31.8,27.9
 2003/08/05,14:45,31.1,62,31.6,28
 2003/08/05,15:00,31.1,65,31.5,28
 2003/08/05,15:15,30.9,67,30.9,28.1
 2003/08/05,15:30,30.8,67,29.8,28.1
 2003/08/05,15:45,30.8,67,29.5,28.2
 2003/08/05,16:00,30.8,68,29.7,28.2
 2003/08/05,16:15,30.7,71,29.6,28.3
 2003/08/05,16:30,30.6,73,29.8,28.3
 2003/08/05,16:45,30.6,74,29.9,28.4
 2003/08/05,17:00,30.5,73,29.9,28.4
 2003/08/05,17:15,30.4,72,29.9,28.5
 2003/08/05,17:30,30.5,72,29.9,28.5
 2003/08/05,17:45,30.5,72,29.9,28.5
 2003/08/05,18:00,30.4,72,30.2,28.6
 2003/08/05,18:15,30.6,75,30.1,28.6
 2003/08/05,18:30,30.5,73,29.8,28.7
 2003/08/05,18:45,30.4,73,29.6,28.7
 2003/08/05,19:00,30.4,72,29.2,28.7
 2003/08/05,19:15,30.3,74,28.9,28.8
 2003/08/05,19:30,30.2,73,29,28.8
 2003/08/05,19:45,30.2,72,28.6,28.8
 2003/08/05,20:00,30,74,28.4,28.9
 2003/08/05,20:15,29.9,74,28.3,28.5
 2003/08/05,20:30,29.9,74,28.4,28.5
 2003/08/05,20:45,29.8,74,28.3,28.5
 2003/08/05,21:00,29.7,75,28.4,27.8
 2003/08/05,21:15,29.7,74,28.5,27.8
 2003/08/05,21:30,29.7,74,28,27.9
 2003/08/05,21:45,29.7,73,28.1,27.9
 2003/08/05,22:00,29.7,72,28,27.9
 2003/08/05,22:15,29.5,71,28.4,28
 2003/08/05,22:30,29.4,70,28.1,28
 2003/08/05,22:45,29.3,69,28,28
 2003/08/05,23:00,29.3,70,28,28
 2003/08/05,23:15,29.2,70,27.7,28.1
 2003/08/05,23:30,29.2,69,27.7,27.7
 2003/08/05,23:45,29.1,69,27.6,27.6
 2003/08/06, 0:00,29.1,69,27.6,27.7
 2003/08/06, 0:15,29.1,69,27.5,27.7
 2003/08/06, 0:30,29,70,27.5,27.7
 2003/08/06, 0:45,28.9,71,27.5,27.7
 2003/08/06, 1:00,28.8,71,27.5,27.7
 2003/08/06, 1:15,28.7,71,27.5,27.8
 2003/08/06, 1:30,28.7,72,27.4,27.8
 2003/08/06, 1:45,28.7,72,27.4,27.8
 2003/08/06, 2:00,28.7,72,27.4,27.8
 2003/08/06, 2:15,28.6,72,27.4,27.8
 2003/08/06, 2:30,28.6,72,27.3,27.8
 2003/08/06, 2:45,28.5,72,27.3,27.9
 2003/08/06, 3:00,28.5,72,27.2,27.9
 2003/08/06, 3:15,28.4,72,27.1,27.9
 2003/08/06, 3:30,28.4,72,27.1,27.9
 2003/08/06, 3:45,28.3,72,27.1,27.9
 2003/08/06, 4:00,28.3,73,27.1,27.9
 2003/08/06, 4:15,28.3,73,27,27.9
 2003/08/06, 4:30,28.3,73,27,28
 2003/08/06, 4:45,28.3,74,26.9,28
 2003/08/06, 5:00,28.3,74,27,28
 2003/08/06, 5:15,28.3,74,26.9,28
 2003/08/06, 5:30,28.2,74,26.9,28
 2003/08/06, 5:45,28.2,74,26.9,28
 2003/08/06, 6:00,28.2,75,27,28
 2003/08/06, 6:15,28.2,75,27,27.1
 2003/08/06, 6:30,28.3,75,27,27.1
 2003/08/06, 6:45,28.4,74,27.1,27.1
 2003/08/06, 7:00,28.5,74,27.2,27.2
 2003/08/06, 7:15,28.5,74,27.1,27.2
 2003/08/06, 7:30,28.5,74,27.1,27.2
 2003/08/06, 7:45,28.6,74,27.3,27.2
 2003/08/06, 8:00,28.6,73,27.5,27.3
 2003/08/06, 8:15,28.7,74,27.7,27.3
 2003/08/06, 8:30,28.8,73,27.9,27.3
 2003/08/06, 8:45,28.8,71,28.2,27.3
 2003/08/06, 9:00,28.8,69,28,27.4
 2003/08/06, 9:15,29,67,28.2,27.4
 2003/08/06, 9:30,29,66,28.2,27.4
 2003/08/06, 9:45,29.2,65,28.5,27.5
 2003/08/06,10:00,29.2,66,28.5,27.1
 2003/08/06,10:15,29.6,66,28.7,27.2
 2003/08/06,10:30,29.6,65,28.7,27.2
 2003/08/06,10:45,29.7,62,28.9,27.2
 2003/08/06,11:00,29.5,62,29,27.3
 2003/08/06,11:15,29.7,63,29.2,27.3
 2003/08/06,11:30,29.7,62,29.5,27.3
 2003/08/06,11:45,29.8,62,29.8,27.4
 2003/08/06,12:00,29.8,61,29.9,27.4
 2003/08/06,12:15,30,63,30.1,27.4
 2003/08/06,12:30,30.2,62,30.3,27.5
 2003/08/06,12:45,30.3,62,30.5,27.5
 2003/08/06,13:00,30.4,62,30.7,27.6
 2003/08/06,13:15,30.5,60,31,27.7
 2003/08/06,13:30,30.6,59,31.2,27.7
 2003/08/06,13:45,30.7,58,31.4,27.8
 2003/08/06,14:00,30.6,57,31.3,27.8
 2003/08/06,14:15,30.7,57,31,27.8
 2003/08/06,14:30,30.8,58,30.9,27.9
 2003/08/06,14:45,30.7,58,30.9,27.9
 2003/08/06,15:00,30.8,58,30.9,28
 2003/08/06,15:15,30.8,57,30.8,28
 2003/08/06,15:30,30.8,57,30.6,28
 2003/08/06,15:45,30.7,57,30.5,28.1
 2003/08/06,16:00,30.7,58,30.5,28.1
 2003/08/06,16:15,30.7,59,30.5,28.2
 2003/08/06,16:30,30.6,60,30.3,28.2
 2003/08/06,16:45,30.5,58,30.2,28.3
 2003/08/06,17:00,30.3,59,30,28.3
 2003/08/06,17:15,30.2,61,29.9,28.3
 2003/08/06,17:30,30.1,61,29.9,28.4
 2003/08/06,17:45,30.2,62,30,28.4
 2003/08/06,18:00,30.2,63,30,28.5
 2003/08/06,18:15,30,64,29.9,28.5
 2003/08/06,18:30,30,64,29.8,28.5
 2003/08/06,18:45,30,65,29.7,28.5
 2003/08/06,19:00,30,64,29.6,28.6
 2003/08/06,19:15,29.9,64,29.4,28.6
 2003/08/06,19:30,29.8,64,29.2,28.6
 2003/08/06,19:45,29.9,64,29.1,28.7
 2003/08/06,20:00,29.8,65,29.1,28.7
 2003/08/06,20:15,29.5,66,29,28.7
 2003/08/06,20:30,29.5,68,29,28.7
 2003/08/06,20:45,29.4,69,28.9,28.7
 2003/08/06,21:00,29.4,68,28.9,28.8
 2003/08/06,21:15,29.4,69,28.9,28.2
 2003/08/06,21:30,29.4,69,28.8,28.2
 2003/08/06,21:45,29.5,68,28.7,28.2
 2003/08/06,22:00,29.5,69,28.8,28.2
 2003/08/06,22:15,29.2,71,28.8,28.2
 2003/08/06,22:30,29.2,71,28.9,28.2
 2003/08/06,22:45,29.1,70,28.9,28.3
 2003/08/06,23:00,29,70,28.6,28.3
 2003/08/06,23:15,28.9,69,28.5,28.3
 2003/08/06,23:30,29,69,28.4,27.8
 2003/08/06,23:45,29.1,69,28.3,27.8
 2003/08/07, 0:00,29.2,68,28.2,27.8
 2003/08/07, 0:15,29.2,68,28.2,27.8
 2003/08/07, 0:30,29.2,69,28.2,27.9
 2003/08/07, 0:45,29.2,69,28.2,27.9
 2003/08/07, 1:00,29.2,68,28.1,27.9
 2003/08/07, 1:15,29.1,68,28,27.9
 2003/08/07, 1:30,29,68,28,28
 2003/08/07, 1:45,29,69,28,28
 2003/08/07, 2:00,29,69,27.9,28
 2003/08/07, 2:15,28.9,69,27.8,28
 2003/08/07, 2:30,28.8,69,27.8,28
 2003/08/07, 2:45,28.8,69,27.7,28
 2003/08/07, 3:00,28.8,69,27.7,28.1
 2003/08/07, 3:15,28.8,69,27.7,28.1
 2003/08/07, 3:30,28.8,69,27.7,28.1
 2003/08/07, 3:45,28.7,69,27.6,28.1
 2003/08/07, 4:00,28.7,69,27.5,28.1
 2003/08/07, 4:15,28.6,69,27.5,28.1
 2003/08/07, 4:30,28.6,68,27.4,28.1
 2003/08/07, 4:45,28.6,68,27.4,28.1
 2003/08/07, 5:00,28.5,68,27.4,28.2
 2003/08/07, 5:15,28.5,68,27.3,28.2
 2003/08/07, 5:30,28.5,68,27.4,28.2
 2003/08/07, 5:45,28.5,69,27.4,28.2
 2003/08/07, 6:00,28.5,68,27.4,28.2
 2003/08/07, 6:15,28.5,69,27.4,27.4
 2003/08/07, 6:30,28.6,69,27.5,27.4
 2003/08/07, 6:45,28.6,69,27.5,27.4
 2003/08/07, 7:00,28.7,69,27.5,27.4
 2003/08/07, 7:15,28.7,69,27.4,27.4
 2003/08/07, 7:30,28.7,69,27.4,27.4
 2003/08/07, 7:45,28.5,70,27.4,27.5
 2003/08/07, 8:00,28.5,71,27.6,27.5
 2003/08/07, 8:15,28.5,71,27.8,27.5
 2003/08/07, 8:30,28.4,70,27.7,27.5
 2003/08/07, 8:45,28.4,71,28,27.5
 2003/08/07, 9:00,28.6,71,28,27.1
 2003/08/07, 9:15,28.7,71,28,27.2
 2003/08/07, 9:30,28.9,68,28.3,27.2
 2003/08/07, 9:45,29.1,68,28.4,27.2
 2003/08/07,10:00,29.1,64,28.4,27.2
 2003/08/07,10:15,29.2,65,28.6,27.3
 2003/08/07,10:30,29.4,65,28.9,27.3
 2003/08/07,10:45,29.5,64,29,27.3
 2003/08/07,11:00,29.5,64,29,27.3
 2003/08/07,11:15,29.5,64,29.2,27.4
 2003/08/07,11:30,29.7,64,29.5,27.4
 2003/08/07,11:45,29.7,63,29.4,27.4
 2003/08/07,12:00,29.7,63,29.3,27.5
 2003/08/07,12:15,29.7,65,29.3,27.5
 2003/08/07,12:30,29.9,64,29.3,27.5
 2003/08/07,12:45,29.9,64,29.3,27.5
 2003/08/07,13:00,29.9,66,29.3,27.6
 2003/08/07,13:15,29.8,64,29.1,27.6
 2003/08/07,13:30,29.7,65,29.2,27.6
 2003/08/07,13:45,29.8,66,29.1,27.7
 2003/08/07,14:00,29.7,67,29.1,27.7
 2003/08/07,14:15,29.8,66,29,27.7
 2003/08/07,14:30,29.8,66,28.9,27.8
 2003/08/07,14:45,29.8,66,28.9,27.8
 2003/08/07,15:00,29.8,66,28.9,27.8
 2003/08/07,15:15,29.8,66,28.8,27.9
 2003/08/07,15:30,29.7,65,28.7,27.9
 2003/08/07,15:45,29.7,64,28.7,27.9
 2003/08/07,16:00,29.6,62,28.6,28
 2003/08/07,16:15,29.5,60,28.5,28
 2003/08/07,16:30,29.4,60,28.4,28
 2003/08/07,16:45,29.3,58,28.3,27.4
 2003/08/07,17:00,29.1,57,28.3,27.4
 2003/08/07,17:15,29.1,56,28.2,27.4
 2003/08/07,17:30,29,57,28.2,27.5
 2003/08/07,17:45,29.1,58,28.3,27.5
 2003/08/07,18:00,29,58,28.5,27.5
 2003/08/07,18:15,29,59,28.5,27.5
 2003/08/07,18:30,29,62,28.5,27.5
 2003/08/07,18:45,29.1,64,28.5,27.6
 2003/08/07,19:00,29.2,64,28.2,27.6
 2003/08/07,19:15,29.2,64,28,27.6
 2003/08/07,19:30,29.3,65,27.7,27.6
 2003/08/07,19:45,29.5,65,27.2,27.6
 2003/08/07,20:00,29.5,67,27.2,27.7
 2003/08/07,20:15,29.5,66,27.1,27.7
 2003/08/07,20:30,29.3,66,26.9,27.7
 2003/08/07,20:45,29.2,67,26.7,27.8